EA1IDU Weather Reports


Display with metric or nautical units.
time (UTC)temp
F
wind
direction
speed
MPH
gust
MPH
rain 1hr
in
rain 24hr
in
rain mn
in
humidity
%
barometer
mb
20260902122529 0 262 4.0 7.0 0.00 0.00 0.00 1 1025.7
20260902121524 0 260 5.0 7.0 0.00 0.00 0.00 1 1025.9
20260902120519 0 270 2.0 2.0 0.00 0.00 0.00 1 1025.8
20260902115614 0 248 2.0 4.0 0.00 0.00 0.00 1 1025.9
20260902114609 0 262 4.0 6.0 0.00 0.00 0.00 1 1025.8
20260902113603 0 265 3.0 4.0 0.00 0.00 0.00 1 1026.0
20260902112701 0 248 1.0 4.0 0.00 0.00 0.00 1 1026.0
20260902111553 0 258 2.0 4.0 0.00 0.00 0.00 1 1026.2
20260902110548 0 270 1.0 4.0 0.00 0.00 0.00 1 1026.3
20260902105603 0 267 1.0 2.0 0.00 0.00 0.00 1 1026.2
20260902104537 0 266 2.0 4.0 0.00 0.00 0.00 1 1026.2
20260902103532 0 266 1.0 4.0 0.00 0.00 0.00 1 1026.4
20260902102527 0 270 0.0 2.0 0.00 0.00 0.00 1 1026.4
20260902101522 0 270 1.0 2.0 0.00 0.00 0.00 1 1026.5
20260902100517 0 270 1.0 2.0 0.00 0.00 0.00 1 1026.6
20260902095613 0 270 0.0 2.0 0.00 0.00 0.00 1 1026.5
20260902094608 0 0.0 0.0 0.00 0.00 0.00 1 1026.5
20260902093601 0 270 0.0 2.0 0.00 0.00 0.00 1 1026.4
20260902092556 0 270 1.0 4.0 0.00 0.00 0.00 1 1026.4
20260902091551 0 270 0.0 2.0 0.00 0.00 0.00 1 1026.4
20260902090545 0 270 0.0 2.0 0.00 0.00 0.00 1 1026.3
20260902085540 0 270 2.0 4.0 0.00 0.00 0.00 1 1026.2
20260902084535 0 270 3.0 6.0 0.00 0.00 0.00 1 1026.3
20260902083530 0 270 2.0 6.0 0.00 0.00 0.00 1 1026.1
20260902082525 0 270 6.0 8.0 0.00 0.00 0.00 1 1026.2
20260902081520 0 270 6.0 9.0 0.00 0.00 0.00 1 1026.2
20260902080616 0 270 4.0 7.0 0.00 0.00 0.00 1 1026.1
20260902075630 0 270 4.0 6.0 0.00 0.00 0.00 1 1026.0
20260902074604 0 270 3.0 6.0 0.00 0.00 0.00 1 1025.9
20260902073559 0 270 4.0 7.0 0.00 0.00 0.00 1 1025.8
20260902072555 0 270 4.0 7.0 0.00 0.00 0.00 1 1025.8
20260902071550 0 270 5.0 9.0 0.00 0.00 0.00 1 1025.8
20260902070604 0 270 5.0 8.0 0.00 0.00 0.00 1 1025.7
20260902065539 0 270 8.0 11.0 0.00 0.00 0.00 1 1025.7
20260902064533 0 270 3.0 8.0 0.00 0.00 0.00 1 1025.5
20260902063528 0 270 3.0 6.0 0.00 0.00 0.00 1 1025.4
20260902062523 0 270 2.0 6.0 0.00 0.00 0.00 1 1025.2
20260902061518 0 270 3.0 4.0 0.00 0.00 0.00 1 1025.1
20260902060613 0 270 2.0 4.0 0.00 0.00 0.00 1 1024.9
20260902055607 0 270 3.0 7.0 0.00 0.00 0.00 1 1024.8
20260902054602 0 270 3.0 4.0 0.00 0.00 0.00 1 1024.9
20260902053557 0 270 3.0 6.0 0.00 0.00 0.00 1 1024.8
20260902052552 0 270 3.0 6.0 0.00 0.00 0.00 1 1024.7
20260902051607 0 270 4.0 6.0 0.00 0.00 0.00 1 1024.8
20260902050542 0 270 5.0 8.0 0.00 0.00 0.00 1 1024.6
20260902045536 0 270 5.0 7.0 0.00 0.00 0.00 1 1024.5
20260902044531 0 270 4.0 7.0 0.00 0.00 0.00 1 1024.5
20260902043526 0 270 3.0 7.0 0.00 0.00 0.00 1 1024.4
20260902042522 0 270 2.0 4.0 0.00 0.00 0.00 1 1024.5
20260902041516 0 270 3.0 7.0 0.00 0.00 0.00 1 1024.4
20260902040612 0 270 4.0 6.0 0.00 0.00 0.00 1 1024.5
20260902035606 0 270 3.0 6.0 0.00 0.00 0.00 1 1024.5
20260902034601 0 270 2.0 4.0 0.00 0.00 0.00 1 1024.6
20260902033557 0 270 3.0 4.0 0.00 0.00 0.00 1 1024.4
20260902032611 0 270 2.0 4.0 0.00 0.00 0.00 1 1024.5
20260902031545 0 270 3.0 7.0 0.00 0.00 0.00 1 1024.5
20260902030540 0 270 4.0 8.0 0.00 0.00 0.00 1 1024.7
20260902025535 0 270 4.0 7.0 0.00 0.00 0.00 1 1024.7
20260902024551 0 270 3.0 6.0 0.00 0.00 0.00 1 1024.5
20260902023525 0 270 4.0 8.0 0.00 0.00 0.00 1 1024.5
20260902022519 0 270 4.0 7.0 0.00 0.00 0.00 1 1024.6
20260902021615 0 270 4.0 8.0 0.00 0.00 0.00 1 1024.6
20260902020611 0 270 3.0 6.0 0.00 0.00 0.00 1 1024.5
20260902015604 0 270 4.0 8.0 0.00 0.00 0.00 1 1024.4
20260902014559 0 270 5.0 8.0 0.00 0.00 0.00 1 1024.6
20260902013554 0 270 4.0 7.0 0.00 0.00 0.00 1 1024.6
20260902012550 0 270 4.0 8.0 0.00 0.00 0.00 1 1024.7
20260902011544 0 270 4.0 8.0 0.00 0.00 0.00 1 1024.8
20260902010539 0 270 3.0 7.0 0.00 0.00 0.00 1 1024.8
20260902005534 0 270 3.0 7.0 0.00 0.00 0.00 1 1024.8
20260902004550 0 270 4.0 9.0 0.00 0.00 0.00 1 1024.7
20260902003543 0 270 5.0 8.0 0.00 0.00 0.00 1 1024.7
20260902002517 0 270 4.0 8.0 0.00 0.00 0.00 1 1024.7
20260902001613 0 270 5.0 9.0 0.00 0.00 0.00 1 1024.6
20260902000607 0 270 6.0 8.0 0.00 0.00 0.00 1 1024.5
20260901235622 0 270 4.0 9.0 0.00 0.00 0.00 1 1024.3
20260901234557 0 270 4.0 7.0 0.00 0.00 0.00 1 1024.4
20260901233552 0 270 5.0 8.0 0.00 0.00 0.00 1 1024.4
20260901232547 0 270 5.0 9.0 0.00 0.00 0.00 1 1024.4
20260901231541 0 270 5.0 9.0 0.00 0.00 0.00 1 1024.4
20260901230536 0 270 6.0 9.0 0.00 0.00 0.00 1 1024.4
20260901225531 0 270 5.0 8.0 0.00 0.00 0.00 1 1024.4
20260901224526 0 270 6.0 11.0 0.00 0.00 0.00 1 1024.4
20260901223521 0 270 7.0 11.0 0.00 0.00 0.00 1 1024.3
20260901222516 0 270 8.0 14.0 0.00 0.00 0.00 1 1024.5
20260901221610 0 270 7.0 13.0 0.00 0.00 0.00 1 1024.5
20260901220605 0 270 9.0 15.0 0.00 0.00 0.00 1 1024.5
20260901215600 0 270 7.0 11.0 0.00 0.00 0.00 1 1024.5
20260901214555 0 270 6.0 11.0 0.00 0.00 0.00 1 1024.3
20260901213551 0 270 7.0 11.0 0.00 0.00 0.00 1 1024.3
20260901212545 0 270 10.0 15.0 0.00 0.00 0.00 1 1024.4
20260901211540 0 270 10.0 16.0 0.00 0.00 0.00 1 1024.3
20260901210536 0 270 10.0 14.0 0.00 0.00 0.00 1 1024.3
20260901205529 0 270 8.0 13.0 0.00 0.00 0.00 1 1024.3
20260901204524 0 270 8.0 13.0 0.00 0.00 0.00 1 1024.3
20260901203519 0 270 7.0 11.0 0.00 0.00 0.00 1 1024.0
20260901202614 0 270 12.0 17.0 0.00 0.00 0.00 1 1024.0
20260901201610 0 270 8.0 14.0 0.00 0.00 0.00 1 1024.0
20260901200604 0 270 9.0 15.0 0.00 0.00 0.00 1 1023.7
20260901195600 0 270 9.0 13.0 0.00 0.00 0.00 1 1023.5
20260901194553 0 270 7.0 13.0 0.00 0.00 0.00 1 1023.3
20260901193548 0 270 6.0 11.0 0.00 0.00 0.00 1 1023.3
20260901192543 0 270 6.0 13.0 0.00 0.00 0.00 1 1023.1
20260901191538 0 270 6.0 11.0 0.00 0.00 0.00 1 1023.1
20260901190534 0 270 5.0 9.0 0.00 0.00 0.00 1 1022.9
20260901185548 0 270 6.0 11.0 0.00 0.00 0.00 1 1022.5
20260901184543 0 270 8.0 15.0 0.00 0.00 0.00 1 1022.6
20260901183517 0 270 7.0 13.0 0.00 0.00 0.00 1 1022.5
20260901182632 0 270 7.0 13.0 0.00 0.00 0.00 1 1022.5
20260901181607 0 270 8.0 18.0 0.00 0.00 0.00 1 1022.1
20260901180602 0 270 6.0 9.0 0.00 0.00 0.00 1 1021.8
20260901175617 0 270 5.0 13.0 0.00 0.00 0.00 1 1021.7
20260901174553 0 287 5.0 11.0 0.00 0.00 0.00 1 1021.7
20260901173606 0 293 6.0 11.0 0.00 0.00 0.00 1 1021.7
20260901172541 0 289 4.0 11.0 0.00 0.00 0.00 1 1021.5
20260901171556 0 295 2.0 9.0 0.00 0.00 0.00 1 1021.5
20260901170531 0 275 2.0 4.0 0.00 0.00 0.00 1 1021.3
20260901165527 0 270 1.0 2.0 0.00 0.00 0.00 1 1021.5
20260901164520 0 256 2.0 4.0 0.00 0.00 0.00 1 1021.5
20260901163615 0 255 4.0 6.0 0.00 0.00 0.00 1 1021.5
20260901162611 0 270 5.0 7.0 0.00 0.00 0.00 1 1021.3
20260901161605 0 252 2.0 4.0 0.00 0.00 0.00 1 1021.3
20260901160640 0 307 1.0 4.0 0.00 0.00 0.00 1 1021.4
20260901155554 0 310 3.0 6.0 0.00 0.00 0.00 1 1021.4
20260901154549 0 290 3.0 7.0 0.00 0.00 0.00 1 1021.4
20260901153544 0 261 4.0 6.0 0.00 0.00 0.00 1 1021.4
20260901152539 0 245 1.0 2.0 0.00 0.00 0.00 1 1021.5
20260901151533 0 270 2.0 6.0 0.00 0.00 0.00 1 1021.6
20260901150529 0 270 1.0 4.0 0.00 0.00 0.00 1 1021.6
20260901145542 0 270 3.0 7.0 0.00 0.00 0.00 1 1021.6
20260901144538 0 280 4.0 7.0 0.00 0.00 0.00 1 1021.7
20260901143612 0 282 1.0 4.0 0.00 0.00 0.00 1 1021.6
20260901142607 0 315 6.0 11.0 0.00 0.00 0.00 1 1021.7
20260901141602 0 256 2.0 4.0 0.00 0.00 0.00 1 1021.8
20260901140557 0 277 1.0 4.0 0.00 0.00 0.00 1 1021.9
20260901135551 0 270 2.0 4.0 0.00 0.00 0.00 1 1021.9
20260901134547 0 270 2.0 6.0 0.00 0.00 0.00 1 1022.0
20260901133541 0 248 3.0 7.0 0.00 0.00 0.00 1 1022.0
20260901132536 0 266 5.0 9.0 0.00 0.00 0.00 1 1022.1
20260901131530 0 270 4.0 9.0 0.00 0.00 0.00 1 1022.2
20260901130527 0 270 2.0 4.0 0.00 0.00 0.00 1 1022.2
20260901125520 0 270 7.0 13.0 0.00 0.00 0.00 1 1022.2
20260901124635 0 270 4.0 8.0 0.00 0.00 0.00 1 1022.1
20260901123610 0 270 3.0 6.0 0.00 0.00 0.00 1 1022.2